Regional Weather Roundup
Issued by NWS Wakefield, VA

Home | Current Version | Previous Version | Graphics & Text | Print | Product List | Glossary On
Versions: 1 2 3 4 5 6 7 8 9 10 11 12 13 14 15 16 17 18 19 20 21 22 23 24 25 26 27 28 29 30 31 32 33 34 35 36 37 38 39 40 41 42 43 44 45 46 47 48 49 50
000
ASUS41 KAKQ 220714
RWRAKQ

REGIONAL WEATHER ROUNDUP
NATIONAL WEATHER SERVICE WAKEFIELD VA
300 AM EDT FRI MAY 22 2015

Note: "fair" indicates few or no clouds below 12,000 feet with no
significant weather and/or obstructions to visibility. * = Denotes
station may not report precipitation (e.g., rain,snow,etc.),
thunder or fog.

VAZ042-051-052>054-056-220800-
NORTHERN VIRGINIA

CITY           SKY/WX    TMP DP  RH WIND       PRES   REMARKS
WASH NATIONAL  PTCLDY    55  48  77 NW8       29.98R
DULLES         PTCLDY    51  45  79 W9        29.99R
FORT BELVOIR   CLEAR     51  48  91 NW7       29.97S
QUANTICO       CLEAR     53  46  77 NW8       30.00R
FREDERICKSBRG* CLEAR     54  52  93 NW6       29.99S
STAFFORD*      CLEAR     48  46  92 W3        30.03S
WARRENTON      CLEAR     50  47  90 CALM      29.99R
CULPEPER*      CLEAR     49  46  88 NW6       30.00S
MANASSAS*      NOT AVBL
LEESBURG*      FAIR      52  48  87 NW9       30.00R
WINCHESTER     CLEAR     52  41  66 NW7       30.03R
FRONT ROYAL*   FAIR      48  43  81 CALM      30.03R
LURAY*         FAIR      52  45  76 W7        30.04S
$$

VAZ048-049-060>072-079>083-220800-
CENTRAL AND SOUTH CENTRAL VIRGINIA

CITY           SKY/WX    TMP DP  RH WIND       PRES   REMARKS
RICHMOND       MOCLDY    53  50  89 N5        29.98S
CHESTERFIELD*  NOT AVBL
PETERSBURG*    CLOUDY    55  53  91 NW3       30.00R
HANOVER        FOG       50  48  93 CALM      30.00R VSB 1/2
TAPPAHANNOCK*  CLEAR     50  47  89 CALM      29.98S FOG
QUINTON*       PTSUNNY   51  51  98 NW8       29.97F
CHARLOTTSVILLE PTCLDY    52  44  74 NW9       30.00F
GORDONSVILLE*  FAIR      49  47  95 NW7       30.00R
ORANGE*        CLEAR     48  46  93 CALM      30.02R FOG
LOUISA*          N/A     48  46  93 CALM      30.00R FOG
BUMPASS*       FAIR      48  48  98 CALM      30.00S
FARMVILLE*     CLEAR     55  55 100 N5        30.00R
CREWE*         FAIR      53  51  95 NW6       29.99S
FORT PICKETT*  CLOUDY    53  52  97 NW3       30.00R
CHASE CITY*    CLOUDY    56  56 100 CALM      30.01R
CLARKSVILLE*   FAIR      54  52  94 W3        30.01R
SOUTH HILL*    CLOUDY    54  53  97 CALM      30.06R
LAWRENCEVILLE* CLOUDY    54  54 100 NW3       30.00R
EMPORIA*       CLOUDY    54  52  94 NW8       30.01R
$$

VAZ088>098-220800-
SOUTHEAST VIRGINIA

CITY           SKY/WX    TMP DP  RH WIND       PRES   REMARKS
NORFOLK        MOCLDY    57  50  77 N9G21     29.94S
VIRGINIA BEACH CLOUDY    58  52  80 NW20G25   29.93S
NORFOLK NAVAL  MOCLDY    60  51  72 NW12      29.97R
WEST POINT*    MOCLDY    55  52  89 W6        29.98F
SALUDA*        PTSUNNY   55  51  86 N17G23    29.95S
NEWPORT NEWS   PTCLDY    56  50  80 NW6       29.96S
LANGLEY AFB    PTCLDY    54  51  89 NW8       29.95R
FORT EUSTIS    MOCLDY    55  55 100 NW9       29.95R
WILLIAMSBURG*  PTCLDY    55  54  94 NW7       29.98S
HR EXEC AP*    CLOUDY    55  52  88 W6        29.98R
FRANKLIN*      CLOUDY    54  52  94 NW5       29.99R
WAKEFIELD      MOCLDY    54  51  90 CALM      29.98R
$$

VAZ020-022-025-037-045-220800-
WEST CENTRAL AND SOUTHWEST VIRGINIA

CITY           SKY/WX    TMP DP  RH WIND       PRES   REMARKS
STAUNTON*      CLOUDY    50  43  77 CALM      30.07R
WAYNESBORO*    FAIR      48  42  81 W3        30.05R
HOT SPRINGS VA CLOUDY    41  41 100 W12       30.04S
LYNCHBURG      PTCLDY    53  44  71 MISG      30.05R
DANVILLE       CLEAR     54  46  74 NW6       30.04R
SOUTH BOSTON*  FAIR      52  48  86 NW8       30.02R
MARTINSVILLE   PTCLDY    52  44  76 NW6       30.09R
ROANOKE        PTCLDY    53  40  61 N8G24     30.07R
BLACKSBURG     CLOUDY    48  41  78 NW7       30.12S
DUBLIN*        CLOUDY    50  44  80 NW8       30.11S
MARION*        CLOUDY    48  42  79 W10       30.15S
HILLSVILLE*    MOCLDY    47  41  80 NW26G36   30.05F
RICHLANDS*     CLOUDY    44  30  57 NW8       30.16R HAZE
WISE*          CLOUDY    45  45 100 CALM      30.18R FOG
ABINGDON*      MOCLDY    49  44  81 CALM      30.16R
$$

MDZ021>025-VAZ099-100-220800-
SOUTHERN MARYLAND AND THE DELMARVA PENINSULA

CITY           SKY/WX    TMP DP  RH WIND       PRES   REMARKS
PATUXENT RIVER CLOUDY    52  49  89 W10       29.95S
BAY BRIDGE APT   N/A    N/A N/A N/A NW6       29.95S
LEONARDTOWN    CLEAR     48  45  87 W5        29.97S
DOVER          CLEAR     49  49 100 W7        29.88S
GEORGETOWN     PTCLDY    49  48  97 W6        29.92S FOG
EASTON         CLOUDY    55  55 100 NW7       29.97S
CAMBRIDGE      CLOUDY    55  52  88 NW7       29.93S
SALISBURY      MOCLDY    49  48  97 W6        29.92S
OCEAN CITY     PTCLDY    50  48  93 NW7       29.91S
WALLOPS ISLAND PTCLDY    50  50 100 NW7       29.93R
ACCOMACK*      CLOUDY    55  52  88 NW12G22   29.93R
$$

NCZ012>017-030>032-220800-
NORTH CENTRAL AND EASTERN NORTH CAROLINA

CITY           SKY/WX    TMP DP  RH WIND       PRES   REMARKS
ROANOKE RAPIDS CLOUDY    54  52  94 NW3       30.01R
RALEIGH        MOCLDY    57  54  89 CALM      30.02S
ELIZABETH CITY CLOUDY    57  53  86 NW12      29.96R
AHOSKIE*       CLOUDY    55  52  89 N3        30.00R
EDENTON*       CLOUDY    57  53  86 N13       29.97R
CURRITUCK*     MOCLDY    57  53  85 NW3       29.95R
KILL DEVIL HLS CLOUDY    59  54  85 NW13G21   29.93R
MANTEO         CLOUDY    60  55  84 N14G24    29.94R
CAPE HATTERAS  CLOUDY    61  55  81 N12G18    29.93R
TARBORO*       CLOUDY    58  53  85 N6        30.01S
GOLDSBORO      CLOUDY    60  55  85 N5        29.99R
WASHINGTON     CLOUDY   N/A N/A N/A NW8       29.99R
GREENVILLE     CLOUDY    59  54  82 N6        30.02R
NEW BERN       CLOUDY    60  55  83 N12       30.00R
WILMINGTON     PTCLDY    62  58  86 N6        29.98S
$$

VAZ048-220800-
ELSEWHERE

CITY           SKY/WX    TMP DP  RH WIND       PRES   REMARKS
HARRISBURG PA  MOCLDY    54  44  69 W13       29.93S
BALTIMORE      PTCLDY    50  47  89 W5        29.95S
ANNAPOLIS      PTCLDY    52  48  86 W7        29.94F
ANDREWS AFB    CLEAR     52  49  88 W8        29.95S
PHILADELPHIA   MOCLDY    53  47  79 W6        29.90F
HENDERSON NC   CLOUDY    55  53  94 CALM      30.02R FOG
GREENSBORO     MOCLDY    55  46  71 N3        30.04R
ROCKY MOUNT    CLOUDY    59  54  83 N7        30.00R
$$

VAZ100-220800-
MARINE

STATION/POSITION TIME  TEMP    WIND        PRES    WAVE   SWELL
                       AIR SEA DIR/SP/G            HT/PER HT/PER
                 (UTC) (F)     (DEG/KT/KT) (MB)    (FT/S) (FT/S)
BRANDYWINE LGT   0600   54 62              1012.6F
CAPE MAY NJ      0600   54 65              1012.0F
LEWES DE         0600   54 63              1012.5S
15NM E FENWICK I 0650   55 58              1011.3S   3/ 5
OCEAN-CITY-INLET 0600   53 60              1012.2R
WACHAPREAGUE VA  0600   54 64              1013.1F
THOMAS POINT MD  0700   53 66  320/ 10/ 12 1014.5F
GOOSES REEF MD   0700   55 66  340/ 14/ 19 1015.0F   0
BISHOPS HEAD MD  0600   53 60              1013.4S
PINEY POINT MD   0600          350/ 14/ 15   N/A
CAMBRIDGE MD     0600   56 70              1013.5F
LEWISETTA VA     0600   55 69              1014.2F
RAPPAHANNOCK LGT 0600                      1014.1R
STINGRAY PT      0700   57 69  330/ 14/ 17 1013.5S   1/ 3
YORK RVR RNG VA  0600   56                 1013.7R
YORKTOWN VA      0600   56 70              1014.1R
JAMESTOWN VA     0700   54 75   10/  8/ 10 1013.9S
DOMINION TERM VA 0600   57                 1014.2S
KIPTOPEKE VA     0600      72                N/A
CHES BAY BRIDGE  0600   58 66              1013.4S
CAPE HENRY VA    0600   58                 1012.4S
CHESAPEAKE LGHT  0600   59     330/ 23/ 27 1013.7R
WILLOUBY STN VA  0600   57                 1014.8S
CAPE HENRY BUOY  0628      62                N/A     5/ 6
1ST LANDING BUOY 0700      63              1013.1S
CAPE CHARLES BUO 0626      63                N/A     4/ 6   2/ 9
OFFSHORE WE BUOY 0611      62                N/A     6/ 6   3/13
64NM E OF VA BCH 0650   58 60  330/ 23/ 29 1011.6R   7/ 7   2/11
DUCK PIER NC     0600   60 66              1010.9F
44100 DUCK FRF   0624      61                N/A     7/ 6
44056 DUCK FRF   0611      65                N/A     6/ 7
OREGON INLET NC  0600   60 69              1012.2S
HATTERAS NC      0600   63 74              1012.4R
DIAMOND SHLS NC  0650   64 76   10/ 17/ 21 1013.1R   5/ 5
CAPE LOOKOUT NC  0700   63     350/ 10/ 12 1014.6R
$$


USA.gov is the U.S. government's official web portal to all federal, state and local government web resources and services.